This demonstration page uses our WeatherBlox Daily Observations layout. Learn more.

Left ArrowRight Arrow

31.84235, -102.49876

Hourly Observations for March 8, 2015

Temp ( °F °C ) Dew Point ( °F °C ) Humidity (%) Winds ( mph kmh ) Pressure ( in mb ) Visibility ( mi km ) Precip ( " mm )
12:53 am 00:53 Clear 46 7.8 26 -3.3 46 46 SE 6 9 30.08 1019 10 16 0.00 0.00
1:53 am 01:53 Clear 46 7.8 27 -2.8 47 47 SSE 13 20 30.06 1018 10 16 0.00 0.00
3:53 am 03:53 Clear 45 7.2 27 -2.8 49 49 S 10 17 30.06 1018 10 16 0.00 0.00
4:53 am 04:53 Clear 45 7.2 28 -2.2 52 52 S 3 6 30.04 1017 10 16 0.00 0.00
5:53 am 05:53 Clear 43 6.1 29 -1.7 58 58 SE 6 9 30.02 1017 10 16 0.00 0.00
6:53 am 06:53 Clear 43 6.1 30 -1.1 60 60 S 5 7 30.02 1017 10 16 0.00 0.00
7:53 am 07:53 Cloudy 43 6.1 32 0 65 65 Calm 30.03 1017 10 16 0.00 0.00
8:53 am 08:53 Cloudy 43 6.1 32 0 65 65 Calm 30.03 1017 10 16 0.00 0.00
9:53 am 09:53 Mostly Sunny 45 7.2 33 0.6 63 63 Calm 30.03 1017 10 16 0.00 0.00
10:53 am 10:53 Sunny 49 9.4 34 1.1 56 56 S 9 15 30.02 1017 10 16 0.00 0.00
11:53 am 11:53 Mostly Sunny 52 11.1 35 1.7 53 53 SSW 9 15 30.02 1017 10 16 0.00 0.00
12:53 pm 12:53 Cloudy 57 13.9 38 3.3 49 49 Calm 30.01 1016 10 16 0.00 0.00
1:53 pm 13:53 Mostly Cloudy 61 16.1 39 3.9 44 44 N 8 13 29.97 1015 10 16 0.00 0.00
2:53 pm 14:53 Sunny 63 17.2 39 3.9 41 41 VRB 3 6 29.93 1013 10 16 0.00 0.00
3:53 pm 15:53 Sunny 65 18.3 40 4.4 40 40 SE 9 15 29.89 1012 10 16 0.00 0.00
4:53 pm 16:53 Sunny 65 18.3 40 4.4 40 40 E 7 11 29.87 1012 10 16 0.00 0.00
5:53 pm 17:53 Sunny 65 18.3 41 5 42 42 SE 8 13 29.87 1012 10 16 0.00 0.00
6:53 pm 18:53 Sunny 64 17.8 42 5.6 45 45 ESE 8 13 29.87 1012 10 16 0.00 0.00
7:29 pm 19:29 Mostly Sunny 63 17.2 41 5 45 45 ESE 9 15 29.85 1011 10 16 0.00 0.00
7:53 pm 19:53 Partly Cloudy 62 16.7 42 5.6 48 48 SE 9 15 29.88 1012 10 16 0.00 0.00
8:53 pm 20:53 Cloudy 60 15.6 44 6.7 56 56 SE 5 7 29.89 1012 10 16 0.00 0.00
9:53 pm 21:53 Mostly Clear 58 14.4 46 7.8 65 65 SSE 7 11 29.91 1013 10 16 0.00 0.00
10:53 pm 22:53 Cloudy 56 13.3 47 8.3 72 72 SSE 7 11 29.92 1013 10 16 0.00 0.00
11:53 pm 23:53 Clear 55 12.8 45 7.2 69 69 SSE 7 11 29.91 1013 10 16 0.00 0.00

Powered by AerisWeather